User: anonymous   Login
Location: Bacea
(45.9500°N, 22.6667°E)
Time: 09:07:27
(UTC+00:00)
Language:

Aureole 2 - Orbit

View from above orbital plane
View from above orbital plane
View from above satellite
View from above satellite

Ground track
Ground track

The orbit data is extracted from the following two-line orbital elements,

1 07003U 73107A   22024.94770644  .00003108  00000-0  11700-3 0  9993
2 07003  73.9259 290.1088 0370550 251.4503 104.6091 14.81810115461995
Epoch (UTC): 24 January 2022 22:44:41
Eccentricity: 0.0370550
inclination: 73.9259°
perigee height: 364 km
apogee height: 883 km
right ascension of ascending node: 290.1088°
argument of perigee: 251.4503°
revolutions per day: 14.81810115
mean anomaly at epoch: 104.6091°
orbit number at epoch: 46199

The dashed part of the orbit path shows where the satellite is in the earth's shadow,  

DLR